Location: Peebles
(55.6412°N, 3.1714°W)
Time: 17:58:51
(UTC+01:00)

USA 281 - Pass Details

Date: 25 January 2022
Orbit: 1070 x 1089 km, 106.0° (Epoch: 25 March)

Event Time Altitude Azimuth Distance (km) Brightness Sun altitude
Rises 05:53:17 0° 43° (NE) 3,898 6.7 -20.0°
Reaches altitude 10° 05:56:35 10° 26° (NNE) 2,943 5.8 -19.5°
Maximum altitude 06:00:53 19° 345° (NNW) 2,353 4.8 -18.9°
Enters shadow 06:03:03 16° 322° (NW) 2,518 4.8 -18.6°
